Вернуться в каталог

STARLINK-35646

АктивенСвязьVLEO
NORAD 66859·PAYLOAD·🇺🇸 United States

Запущен Dec 2, 2025 с Cape Canaveral Space Force Station

Loading…

Ближайшие Пролёты (ближайшие 24 часа)

TLE

СвежийSource: CelesTrak SupGP

Эпоха: Sep 15, 2026, 03:22 UTC

1 66859C 25281M   26258.14076389  .00040923  00000+0  14819-2 0  2583
2 66859  43.0032 353.6027 0001634 262.9439 291.7343 15.27565584    11

Отслеживайте STARLINK-35646 в реальном времени с AllMySat

Download on the App Store